Miles City, MT

3:28 PM MDT on April 23, 2018 (GMT -0600)
Wiley

Weather History for KMLS - February, 2014

Change the Weather History Date:

Friday, February 7, 2014

  Actual Average Record
Temperature  
Mean Temperature -9 °F 22 °F  
Max Temperature 4 °F 33 °F 59 °F (1954)
Min Temperature -22 °F 11 °F -31 °F (1971)
Degree Days  
Heating Degree Days 74 43  
Month to date heating degree days 481 303  
Since 1 July heating degree days 5105 4899  
Cooling Degree Days 0 0  
Month to date cooling degree days 0 0  
Year to date cooling degree days 0 0  
Moisture  
Dew Point -14 °F    
Average Humidity 72    
Maximum Humidity 86    
Minimum Humidity 58    
Precipitation  
Precipitation 0.00 in 0.01 in 0.31 in (1979)
Month to date precipitation 0.01 0.05  
Year to date precipitation 0.15 0.37  
Sea Level Pressure  
Sea Level Pressure 30.09 in    
Wind  
Wind Speed 6 mph (South)    
Max Wind Speed 12 mph    
Max Gust Speed 12 mph    
Visibility 10 miles    
Events      
T = Trace of Precipitation, MM = Missing Value Source: NWS Daily Summary

Daily Weather History Graph

Daily Weather History Graph

Search for Another Location

Airport or City:

Astronomy

Feb. 07, 2014 Rise Set
Actual Time 7:18 AM MST 5:17 PM MST
Civil Twilight 6:47 AM MST 5:48 PM MST
Nautical Twilight 6:11 AM MST 6:24 PM MST
Astronomical Twilight 5:36 AM MST 6:59 PM MST
Moon 11:26 AM MST (2/7) 1:40 AM MST (2/7)
Length of Visible Light 11h 01m
Length of Day
9h 58m
First Quarter, 60% of the Moon is Illuminated
Feb 7
First Quarter
Feb 14
Full
Feb 22
Last Quarter
Mar 1
New
Mar 8
First Quarter

Hourly Weather History & Observations

Time (MST) Temp. Windchill Dew Point Humidity Pressure Visibility Wind Dir Wind Speed Gust Speed Precip Events Conditions
12:53 AM -22.0 °F -42.3 °F -26.0 °F 82% 30.25 in 10.0 mi SSE 9.2 mph - N/A   Clear
1:53 AM -18.9 °F -38.6 °F -24.0 °F 78% 30.22 in 10.0 mi SSE 9.2 mph - N/A   Clear
2:53 AM -18.9 °F -35.8 °F -24.0 °F 78% 30.20 in 10.0 mi SSE 6.9 mph - N/A   Clear
3:53 AM -18.0 °F -36.1 °F -23.1 °F 78% 30.18 in 10.0 mi SSE 8.1 mph - N/A   Clear
4:53 AM -18.9 °F -35.8 °F -24.0 °F 78% 30.17 in 10.0 mi SSE 6.9 mph - N/A   Clear
5:53 AM -20.0 °F -37.1 °F -25.1 °F 78% 30.15 in 10.0 mi SSE 6.9 mph - N/A   Clear
6:53 AM -20.0 °F -37.1 °F -25.1 °F 78% 30.14 in 10.0 mi SSE 6.9 mph - N/A   Clear
7:53 AM -18.9 °F -35.8 °F -24.0 °F 78% 30.13 in 10.0 mi SSE 6.9 mph - N/A   Clear
8:53 AM -16.1 °F -33.7 °F -22.0 °F 74% 30.13 in 10.0 mi SSE 8.1 mph - N/A   Clear
9:53 AM -13.0 °F -25.1 °F -18.0 °F 78% 30.13 in 10.0 mi SSE 4.6 mph - N/A   Clear
10:53 AM -9.9 °F -23.4 °F -16.1 °F 74% 30.11 in 10.0 mi ESE 5.8 mph - N/A   Clear
11:53 AM -7.1 °F -23.9 °F -15.0 °F 68% 30.06 in 10.0 mi NNE 9.2 mph - N/A   Clear
12:53 PM -2.9 °F -15.0 °F -13.0 °F 62% 30.05 in 10.0 mi North 5.8 mph - N/A   Clear
1:53 PM -2.0 °F -15.4 °F -11.9 °F 63% 30.02 in 10.0 mi North 6.9 mph - N/A   Clear
2:53 PM -0.0 °F -11.6 °F -9.9 °F 63% 30.02 in 10.0 mi North 5.8 mph - N/A   Overcast
3:53 PM 1.0 °F - -9.0 °F 63% 30.02 in 10.0 mi Calm Calm - N/A   Overcast
4:53 PM 1.9 °F -7.6 °F -8.0 °F 63% 30.04 in 10.0 mi West 4.6 mph - N/A   Overcast
5:53 PM 1.9 °F -7.6 °F -7.1 °F 66% 30.06 in 10.0 mi NW 4.6 mph - N/A   Overcast
6:53 PM 1.9 °F - -6.0 °F 69% 30.08 in 10.0 mi Calm Calm - N/A   Overcast
7:53 PM 1.9 °F - -6.0 °F 69% 30.07 in 10.0 mi Calm Calm - N/A   Overcast
8:37 PM 3.0 °F - -4.0 °F 73% 29.85 in 10.0 mi Calm Calm - N/A   Overcast
8:53 PM 3.0 °F -4.4 °F -4.0 °F 73% 30.07 in 10.0 mi South 3.5 mph - N/A   Overcast
9:53 PM 3.0 °F -6.4 °F -2.9 °F 76% 30.07 in 10.0 mi SSE 4.6 mph - N/A   Overcast
10:53 PM 3.9 °F -8.2 °F -2.0 °F 76% 30.09 in 10.0 mi SW 6.9 mph - N/A   Overcast
11:36 PM 3.9 °F -6.9 °F -0.9 °F 80% 29.89 in 10.0 mi WSW 5.8 mph - N/A   Overcast
11:53 PM 3.9 °F -6.9 °F -0.9 °F 80% 30.08 in 10.0 mi West 5.8 mph - N/A   Overcast